Regional Weather Roundup
Issued by NWS

Home | Current Version | Previous Version | Text Only | Print | Product List | Glossary Off
Versions: 1 2 3 4 5 6 7 8 9 10 11 12 13 14 15 16 17 18 19 20 21 22 23 24 25 26 27 28 29 30 31 32 33 34 35 36 37 38 39 40 41 42 43 44 45 46 47 48 49 50

351
ASUS43 KIND 091909
RWRIN

WEATHER ROUNDUP FOR INDIANA
NATIONAL WEATHER SERVICE INDIANAPOLIS IN
200 PM EST TUE FEB 09 2016

NOTE: "FAIR" INDICATES FEW OR NO CLOUDS BELOW 12,000 FEET WITH NO
SIGNIFICANT WEATHER AND/OR OBSTRUCTIONS TO VISIBILITY.

* - STATION DOES NOT REPORT WEATHER SUCH AS PRECIPITATION OR FOG.

+ - STATION NOT QUALITY CONTROLLED BY THE NATIONAL WEATHER SERVICE.
    USE DATA WITH CAUTION...ESPECIALLY DEWPOINT AND RELATIVE
    HUMIDITY OBSERVATIONS.

INZ001>003-010>013-019-020-092000-
NORTHWEST INDIANA

CITY           SKY/WX    TMP DP  RH WIND       PRES   REMARKS
GARY /AIRPORT/ PTSUNNY   21  10  63 NW12      29.83S WCI   9
KNOX *+        CLOUDY    23  16  74 NW15G21   29.78S WCI  10
LA PORTE +     LGT SNOW  23  17  79 NW13G20   29.77S WCI  11
MICHIGAN CITY+ LGT SNOW  21  16  79 NW8G21    29.79S WCI  12
MONTICELLO +   LGT SNOW  21  13  70 W14       29.80S WCI   8
RENSSELAER +   LGT SNOW  21  14  73 W15G21    29.82R WCI   8
VALPARAISO     LGT SNOW  20  12  71 MISG      29.79S

$$

LMZ046-743>745-092000-
SOUTHERN LAKE MICHIGAN

STATION/POSITION TIME  TEMP    WIND        PRES    WAVE
                       AIR SEA DIR/SP/G            HT
                 (UTC) (F)     (DEG/KT/KT) (MB)    (FT)
BURNS HARBOR     1800   20     310/ 15/ 21 1009.8S
MICHIGAN CITY    1800   21     290/ 16/ 19   N/A

$$

INZ004-005-014>016-021>024-092000-
NORTH CENTRAL INDIANA

CITY           SKY/WX    TMP DP  RH WIND       PRES   REMARKS
ELKHART        CLOUDY    27  19  74 NW17      29.72S WCI  14
GOSHEN         LGT SNOW  26  20  77 NW15      29.70S WCI  14
LOGANSPORT +   LGT SNOW  21  12  68 W13G20    29.79R WCI   9
PERU/GRISSOM   FLURRIES  21  16  79 W20       29.74S WCI   6
ROCHESTER +    LGT SNOW  27  18  69 NW16      29.75R WCI  14
SOUTH BEND     LGT SNOW  23  18  81 NW16      29.74S WCI  10
WARSAW +       CLOUDY    27  19  74 NW14G22   29.71S WCI  15

$$

INZ006>009-017-018-025>027-092000-
NORTHEAST INDIANA

CITY           SKY/WX    TMP DP  RH WIND       PRES   REMARKS
ANGOLA *+      CLOUDY    27  19  74 NW16      29.64S WCI  14
AUBURN +       CLOUDY    30  19  64 NW16G23   29.67S WCI  19
FORT WAYNE     FLURRIES  29  21  72 W16       29.69S WCI  17
HUNTINGTON +   CLOUDY    24  17  72 W15G22    29.71S WCI  12

$$

INZ028-029-035-036-043>045-051>053-092000-
WEST CENTRAL INDIANA

CITY           SKY/WX    TMP DP  RH WIND       PRES   REMARKS
GREENCASTLE +  LGT SNOW  21  10  63 W8G16     29.83S WCI  12
LAFAYETTE      LGT SNOW  20  15  81 NW14      29.82S WCI   7
TERRE HAUTE    LGT SNOW  20  13  74 NW16G23   29.87S WCI   6

$$

INZ030>032-037>040-046>048-054>057-064-065-092000-
CENTRAL INDIANA

CITY           SKY/WX    TMP DP  RH WIND       PRES   REMARKS
COLUMBUS       CLOUDY    23  19  86 W14       29.82S WCI  11
FISHERS *+     CLOUDY    21  19  93 NW14      29.78S WCI   8
FRANKFORT +    LGT SNOW  22  13  66 W15       29.80S WCI   9
GREENWOOD *+   CLOUDY    23  18  80 W13G21    29.80S WCI  11
INDIANAPOLIS   FLURRIES  23  14  68 W20       29.79S WCI   8
-EAGLE CREEK   FLURRIES  22  15  75 W16       29.79S WCI   8
KOKOMO *+      CLOUDY    21  16  79 NW20      29.76S WCI   6
MARION +       CLOUDY    22  13  65 W18G24    29.75S WCI   8
MT COMFORT *+  CLOUDY    23  18  80 NW18      29.78S WCI   9
SHELBYVILLE    LGT SNOW  24  17  74 W15       29.78S WCI  11
ZIONSVILLE +   LGT SNOW  22  16  79 W14G24    29.78S WCI   9

$$

INZ033-034-041-042-049-050-058-059-092000-
EAST CENTRAL INDIANA

CITY           SKY/WX    TMP DP  RH WIND       PRES   REMARKS
MUNCIE         LGT SNOW  24  17  74 W14       29.74S WCI  12

$$

INZ060-061-067>069-081>083-085>088-092000-
SOUTHWEST INDIANA

CITY           SKY/WX    TMP DP  RH WIND       PRES   REMARKS
EVANSVILLE     CLOUDY    24  12  60 W15G24    29.94S WCI  11
HUNTINGBURG *+ CLOUDY    23  16  74 W13G18    29.90S WCI  11
WASHINGTON +   FLURRIES  22  15  74 NW12G17   29.89F WCI  11

$$

INZ062-063-066-070>080-084-089>092-092000-
SOUTH CENTRAL AND SOUTHEAST INDIANA

CITY           SKY/WX    TMP DP  RH WIND       PRES   REMARKS
BEDFORD +      LGT SNOW  23  18  80 W9G17     29.84S WCI  13
BLOOMINGTON    LGT SNOW  22  15  75 W10       29.82S WCI  11
MADISON *+     CLOUDY    25  16  68 W15       29.83R WCI  12
NORTH VERNON + LGT SNOW  23  18  80 W13       29.81F WCI  11
SEYMOUR +      LGT SNOW  27  18  69 W16       29.83S WCI  14

$$





USA.gov is the U.S. government's official web portal to all federal, state and local government web resources and services.